Regional Weather Roundup
Issued by NWS

Home | Current Version | Previous Version | Graphics & Text | Print | Product List | Glossary On
Versions: 1 2 3 4 5 6 7 8 9 10 11 12 13 14 15 16 17 18 19 20 21 22 23 24 25 26 27 28 29 30 31 32 33 34 35 36 37 38 39 40 41 42 43 44 45 46 47 48 49 50
000
ASUS43 KMPX 010710
RWRMN
WEATHER ROUNDUP FOR MINNESOTA
NATIONAL WEATHER SERVICE TWIN CITIES/CHANHASSEN MN
200 AM CDT TUE SEP 01 2015


NOTE: "FAIR" INDICATES FEW OR NO CLOUDS BELOW 12,000 FEET WITH NO
SIGNIFICANT WEATHER AND/OR OBSTRUCTIONS TO VISIBILITY. N/A MEANS
CURRENT SKY AND/OR WEATHER CONDITIONS ARE NOT AVAILABLE.

MNZ060>063-068>070-010800-
   Twin Cities Metro

CITY           SKY/WX    TMP DP  RH WIND       PRES   REMARKS
TWIN CITIES    MOCLDY    74  69  85 S6        29.91F
ST PAUL        CLEAR     71  69  93 SE7       29.91F FOG
CRYSTAL        PTCLDY    74  69  85 S5        29.90S
BLAINE         PTCLDY    75  72  88 S6        29.91S
LAKEVILLE      CLEAR     64  64 100 CALM      29.93S FOG
EDEN PRAIRIE   PTCLDY    72  68  87 S6        29.91S FOG
SOUTH ST PAUL  CLEAR     72  69  91 S3        29.92S
LAKE ELMO      FAIR      70  68  94 S3        29.93F FOG
$$
MNZ001>005-007-008-013>017-022>024-027-028-010800-
   Northwest Minnesota

CITY           SKY/WX    TMP DP  RH WIND       PRES   REMARKS
BEMIDJI        MOCLDY    61  60  98 CALM      29.90S FOG
HALLOCK        PTCLDY    54  46  76 CALM      29.83S HAZE
ROSEAU         CLEAR     57  52  82 SW5       29.84F
WARROAD        CLEAR     59  54  82 SW6       29.85S
THIEF RVR FALL PTCLDY   N/A N/A N/A S5        29.87S
CROOKSTON      PTCLDY    55  54  94 S6        29.88S
FOSSTON        FOG       55  55 100 S5        29.90F VSB 1/2
DETROIT LAKES    N/A     63  63 100 CALM      29.92S FOG
MOORHEAD       PTCLDY    63  61  94 CALM      29.89S FOG
PARK RAPIDS    MOCLDY    64  61  90 CALM      29.91R FOG
MAHNOMEN       FAIR      61  60  97 CALM      29.90S
$$
MNZ006-009>011-018-025>026-010800-
   North Central Minnesota

CITY           SKY/WX    TMP DP  RH WIND       PRES   REMARKS
BAUDETTE       PTCLDY    57  55  93 CALM      29.85R
FLAG ISLAND    CLEAR     63  57  82 SW5       29.82S
INTL FALLS     MOCLDY    64  62  93 W5        29.86R
WASKISH        PTCLDY    61  57  88 CALM      29.88R
BIG FORK       FOG       63  61  94 CALM      29.89S VSB 1/4
LONGVILLE      FOG       63  63 100 CALM      29.90S VSB 1
GRAND RAPIDS     N/A     66  64  94 W3        29.90S
CRANE LAKE     CLOUDY    61  61 100 SE1       29.89R
ORR            CLOUDY    66  63  88 CALM      29.86R
COOK           CLOUDY    66  64  94 CALM      29.89S
WALKER         FAIR      63  63  99 CALM      29.90S FOG
$$
MNZ012-019>021-037-010800-
   Northeast Minnesota

CITY           SKY/WX    TMP DP  RH WIND       PRES   REMARKS
DULUTH         MOCLDY    71  68  90 SW9       29.90R
ELY            CLOUDY    72  66  83 SW5       29.89R
HIBBING        CLOUDY    69  67  93 CALM      29.88S
EVELETH        CLOUDY    70  68  94 CALM      29.90S
DULUTH HARBOR  PTCLDY    72  70  94 W3        29.87S
TWO HARBORS    MOCLDY    72  66  83 CALM      29.87R
SILVER BAY       N/A     68  66  94 CALM      29.86S FOG
GRAND MARAIS     N/A     61  59  93 CALM      29.86R
G MARAIS ARPRT MOCLDY    66  64  94 CALM      29.91S FOG
$$
MNZ029>031-032-039>041-046>048-054>057-064-010800-
   West Central Minnesota

CITY           SKY/WX    TMP DP  RH WIND       PRES   REMARKS
FERGUS FALLS   CLOUDY    66  66 100 NE5       29.89F
WHEATON        MOCLDY    63  61  94 CALM      29.90F
MORRIS         CLOUDY    68  66  94 N3        29.88F FOG
ALEXANDRIA     CLOUDY    69  66  90 CALM      29.92R
ELBOW LAKE     FAIR      67  66  97 CALM      29.89F
WADENA         MOCLDY    64  63  94 CALM      29.91S FOG
GLENWOOD       CLOUDY    70  66  88 CALM      29.91F
APPLETON       CLOUDY    70  66  88 CALM      29.88F
BENSON         CLOUDY    68  64  88 CALM      29.89F
ORTONVILLE     MOCLDY    70  66  88 N1        29.89F
MADISON        CLOUDY    70  66  88 CALM      29.89F
WILLMAR        FAIR      72  70  94 S3        29.91F
$$
MNZ033>034-036-042>043-049>051-058-059-010800-
   Central Minnesota

CITY           SKY/WX    TMP DP  RH WIND       PRES   REMARKS
ST CLOUD       CLOUDY    70  68  93 S5        29.89F
SAUK CENTRE    FAIR      69  68  96 CALM      29.91S
PAYNESVILLE    CLOUDY    71  67  88 CALM      29.91S
AITKIN         MOCLDY    73  66  78 SW5       29.88S
PINE RIVER     MOCLDY    68  66  94 NW3       29.93S
BRAINERD       MOCLDY    71  67  87 SW5       29.89S
STAPLES        CLOUDY    66  64  94 CALM      29.90S
LONG PRAIRIE   FAIR      68  68 100 CALM      29.91S
LITTLE FALLS   CLOUDY    70  64  83 CALM      29.90S
LITCHFIELD     MOCLDY    72  70  94 CALM      29.91F
BUFFALO        MOCLDY    71  66  85 S3        29.91F
MAPLE LAKE     MOCLDY    71  68  91 CALM      29.91F
$$
MNZ037-044-045-052-053-010800-
   East Central Minnesota

CITY           SKY/WX    TMP DP  RH WIND       PRES   REMARKS
PRINCETON      MOCLDY    72  68  88 S3        29.90F
MORA           CLOUDY    70  68  94 S3        29.91F
CAMBRIDGE      MOCLDY    73  64  73 S3        29.88F
RUSH CITY      FAIR      70  68  93 S6        29.90F
MOOSE LAKE     MOCLDY    70  68  94 CALM      29.88S
HINCKLEY       FAIR      70  70 100 CALM      29.90F
CLOQUET        MOCLDY    72  66  83 SW6       29.90S
MCGREGOR       CLOUDY    72  68  88 CALM      29.89S
$$
MNZ071>073-080-081-089-090-097-098-010800-
   Southwest Minnesota

CITY           SKY/WX    TMP DP  RH WIND       PRES   REMARKS
MONTEVIDEO     CLOUDY    72  66  83 W7        29.90F
GRANITE FALLS  MOCLDY    68  67  98 CALM      29.91F
CANBY          CLOUDY    72  67  84 CALM      29.90F
MARSHALL       CLOUDY    72  64  78 SW9       29.91F
REDWOOD FALLS  MOCLDY    71  67  87 S8        29.90F
OLIVIA         PTCLDY    68  63  83 SW5       29.90F
PIPESTONE      MOCLDY    70  66  88 CALM      29.93F
WINDOM         CLEAR     70  64  83 CALM      29.94S
WORTHINGTON    CLEAR     68  63  83 S8        29.93F
JACKSON        CLEAR     68  64  88 S5        29.95S
TRACY          PTCLDY    71  67  87 SW9       29.91F
SLAYTON        PTCLDY    68  67  94 CALM      29.94F
$$
MNZ065>067-074>077-082>085-091>093-010800-
   South Central Minnesota

CITY           SKY/WX    TMP DP  RH WIND       PRES   REMARKS
MANKATO        CLEAR     68  64  88 S6        29.93S
NEW ULM        PTCLDY    68  66  94 SW6       29.92S
ST JAMES       CLEAR     66  64  94 S5        29.94S
FAIRMONT       CLEAR     63  57  82 S5        29.94S
GLENCOE        PTCLDY    70  68  95 S3        29.91F
FARIBAULT      CLEAR     66  66 100 S6        29.94F FOG
OWATONNA       CLEAR     70  66  88 S6        29.95S
WASECA         CLEAR     64  63  94 S3        29.95F FOG
ALBERT LEA     CLEAR     68  68 100 CALM      29.96S FOG
$$
MNZ078>079-086>088-094>096-010800-
   Southeast Minnesota

CITY           SKY/WX    TMP DP  RH WIND       PRES   REMARKS
ROCHESTER      CLEAR     69  68  96 S7        29.97F FOG
RED WING       MOCLDY    70  68  94 CALM      29.92F FOG
STANTON        CLEAR     69  66  92 CALM      29.93S FOG
DODGE CENTER   MOCLDY    70  68  94 S6        29.96F FOG
WINONA         CLEAR     72  70  94 CALM      29.95S
AUSTIN         CLEAR     72  72 100 S3        29.96F FOG
PRESTON        CLEAR     71  68  91 S6        29.98S
$$
ABBREVIATIONS USED IN REMARKS
   TC - TEMPERATURES IN CELSIUS
  WCI - WIND CHILL INDEX
   HX - HEAT INDEX
  VSB - VISIBILITY
$$



USA.gov is the U.S. government's official web portal to all federal, state and local government web resources and services.